RH
17 18 19 19 19 20 20 20 20 20 19 19 18 18 17 16 15 14 12 11 10 9 8 7 6 6 6 5 5 8 15 19 20 18 16 16 18 19 17 14 11 11 11 13 15 14 13 11 11 10 10 11 12 13 13 13 13 13 13 14 14 14 15 16 16 16 16 15 14 13 12 10 8 8 10 10 11 10 10 10 11 14 15 16 19 20 19 20
19 19 20 20 20 19 18 17 16 16 16 16 16 17 17 17 17 16 16 14 13 12 10 9 8 7 7 6 5 4 6 12 18 21 21 19 17 17 18 17 13 11 10 12 15 16 15 13 12 11 10 10 10 11 11 11 11 11 12 12 13 14 14 15 16 15 15 14 13 12 10 8 7 8 10 13 13 12 11 11 12 16 19 23 24 24 26 27
20 21 21 20 17 13 11 10 10 10 10 10 10 11 11 11 12 13 14 14 14 14 13 12 10 9 8 7 7 6 4 5 10 19 24 21 17 17 18 18 16 13 11 12 15 17 17 15 14 12 11 10 9 9 9 9 10 10 11 11 11 13 13 14 14 14 13 12 11 9 7 7 7 10 12 14 15 14 13 11 17 28 30 30 33 34 34 35
22 22 19 15 10 8 8 7 7 7 7 7 7 7 7 7 7 7 8 9 10 11 12 13 13 12 10 9 8 7 7 5 4 9 20 24 21 18 19 19 18 15 12 12 15 18 18 16 15 13 12 11 9 9 9 9 9 9 9 10 10 11 11 11 12 11 10 9 8 7 7 6 8 12 13 14 15 14 14 14 20 31 34 35 36 34 32 31
21 17 13 10 8 8 7 7 7 7 7 7 7 8 8 8 8 8 7 7 7 7 8 8 10 12 13 12 10 9 8 7 8 7 11 22 25 21 20 21 19 16 14 14 16 18 19 17 15 14 12 11 10 9 9 8 8 9 8 8 9 9 9 9 9 8 7 7 7 6 6 6 8 12 13 12 14 15 15 16 18 23 28 30 26 21 23 28
13 10 9 8 8 8 7 8 8 9 9 10 11 12 11 11 11 11 10 9 8 8 7 7 7 8 11 14 13 12 9 10 19 22 17 20 26 25 22 21 21 18 15 15 16 18 18 17 15 14 13 11 10 10 9 8 9 8 8 8 8 8 8 7 7 7 7 6 6 6 6 6 8 12 13 12 15 18 17 16 18 19 20 20 16 15 19 31
9 8 8 8 7 8 8 9 10 11 12 13 14 14 14 13 12 12 11 11 10 9 8 7 7 6 7 11 14 15 11 9 15 23 28 30 30 28 25 23 21 19 16 15 15 18 18 16 15 14 13 12 11 10 9 9 9 8 8 8 8 7 7 6 6 6 6 7 6 6 6 6 8 12 13 13 16 19 17 16 19 18 16 15 15 16 18 29
9 8 8 8 8 9 10 11 12 13 14 15 16 15 14 13 12 11 10 10 9 9 9 8 8 7 6 8 12 14 13 11 9 10 22 38 43 36 29 24 22 19 17 16 15 17 18 17 15 14 13 12 11 10 9 9 9 9 8 8 8 7 6 6 6 7 7 7 7 7 7 7 9 13 14 14 15 15 15 16 19 20 17 15 15 15 17 28
9 9 9 10 11 13 14 15 15 16 18 18 18 16 13 11 9 8 8 7 7 8 8 9 9 8 7 7 9 10 10 12 12 9 12 29 48 49 37 27 23 20 17 16 17 18 18 17 15 14 13 12 11 10 10 9 9 9 8 8 8 7 6 6 6 6 7 7 7 7 7 8 10 14 13 14 14 12 14 15 18 21 19 17 16 16 22 38
11 12 13 14 17 18 19 20 20 21 21 18 15 12 9 8 7 7 7 6 6 7 6 8 9 9 8 8 8 6 8 12 14 12 9 20 44 55 48 34 23 20 19 16 17 18 18 17 15 14 14 12 12 10 10 9 9 11 11 9 8 8 6 6 7 6 7 8 8 9 10 10 11 14 14 14 14 12 13 13 15 18 19 20 19 20 31 45
19 20 22 23 24 24 25 24 24 23 19 14 10 8 7 7 7 7 7 7 6 7 7 9 11 10 9 9 8 5 8 15 16 16 14 21 44 59 56 44 28 20 19 17 16 17 17 17 15 15 15 13 12 11 10 10 10 13 17 13 9 9 8 7 8 7 8 8 9 12 14 14 14 15 15 14 15 16 15 14 16 17 18 22 21 26 36 41
29 29 30 30 30 30 29 28 25 21 14 10 7 7 7 7 8 8 8 8 8 8 9 12 16 16 14 10 6 5 10 15 17 19 16 22 44 61 61 52 36 22 19 18 16 17 18 17 15 15 17 16 14 12 11 11 12 14 19 18 13 12 11 8 8 8 10 9 9 14 16 16 16 15 14 13 15 17 17 15 16 16 17 22 25 29 35 36
32 34 34 35 35 34 33 30 23 16 11 8 6 7 7 7 8 9 10 11 11 13 12 15 21 24 22 12 3 6 13 16 19 18 16 25 42 57 63 57 43 27 20 19 18 18 18 17 15 14 18 18 15 15 13 13 14 15 17 19 18 17 13 8 9 11 12 9 10 16 18 16 15 14 13 13 15 16 15 14 15 15 14 19 25 30 31 33
31 34 37 38 39 38 34 27 17 12 10 7 6 7 8 9 10 10 11 13 17 19 19 22 25 29 29 16 6 10 16 18 20 17 18 27 31 44 61 59 48 33 22 20 20 19 18 16 15 14 16 18 17 17 18 17 16 15 18 18 17 19 14 8 10 14 13 10 12 18 19 17 16 15 14 14 16 15 14 13 13 13 13 15 23 31 33 34
30 32 36 41 44 42 33 21 12 11 11 7 7 9 10 12 12 12 13 14 20 24 23 27 29 33 30 20 15 16 18 20 22 18 19 23 19 33 59 58 48 39 26 22 21 19 18 16 15 14 14 17 20 21 22 23 19 17 21 20 17 21 17 8 9 14 13 11 15 19 18 17 16 15 15 15 17 16 14 13 13 13 13 15 24 33 34 35
32 33 36 41 48 46 33 20 11 10 12 10 13 15 14 14 14 15 15 14 19 22 26 33 35 35 29 26 24 20 20 22 24 22 17 18 13 24 55 59 48 43 33 25 22 20 17 16 15 14 14 16 22 26 26 26 24 21 21 21 19 21 20 13 9 11 12 13 16 18 17 17 16 15 16 16 16 15 14 14 13 14 15 18 27 34 31 30
37 37 37 40 48 51 39 24 13 10 11 13 18 20 17 16 15 17 19 18 19 19 25 34 37 35 28 27 27 28 33 27 22 23 18 18 13 16 45 60 51 47 40 30 25 21 17 17 16 15 14 16 23 30 33 31 28 24 23 23 21 21 22 16 11 10 10 14 16 16 16 16 16 16 17 17 16 15 14 13 13 15 18 23 32 36 32 29
39 40 40 41 47 54 49 32 17 11 10 12 18 22 19 19 18 20 22 24 25 24 25 28 33 35 27 26 30 35 44 39 30 29 21 17 14 13 33 54 55 50 45 35 27 25 23 22 20 16 14 17 24 32 35 31 26 26 25 25 23 21 20 15 12 12 11 13 15 16 16 16 16 17 17 17 15 14 13 13 15 17 20 31 40 39 37 33
43 43 42 43 47 55 55 41 22 12 10 11 16 22 22 20 20 24 28 31 34 36 36 33 33 34 28 29 36 37 39 44 48 45 30 18 14 14 26 49 58 54 49 41 32 29 29 32 29 21 15 15 22 29 33 31 26 26 26 24 23 21 20 16 13 13 13 15 15 15 15 15 16 16 16 17 16 15 14 14 19 23 30 41 47 44 39 34
60 60 54 47 46 55 60 49 30 16 11 11 15 21 23 23 24 28 32 39 44 46 49 48 41 32 25 25 32 35 35 44 57 57 42 23 13 15 27 47 60 58 53 45 38 34 36 41 32 19 14 13 20 29 33 31 27 26 25 24 23 21 20 17 14 14 14 14 14 14 15 15 15 15 15 17 17 16 14 14 16 23 36 46 49 49 44 36
74 77 74 61 48 53 62 55 37 21 15 13 14 21 27 29 32 34 35 35 42 51 52 53 50 33 23 25 32 40 42 44 54 60 52 31 17 20 28 44 61 60 53 50 47 47 50 45 26 15 15 14 19 30 33 30 26 25 25 24 22 21 19 18 16 15 13 13 13 12 13 14 15 15 15 16 16 16 14 14 13 18 32 48 55 54 45 38
81 81 85 75 54 53 65 61 44 28 19 16 17 21 30 40 44 48 51 37 28 43 50 47 48 35 21 25 37 50 51 43 49 65 70 51 31 27 26 37 58 60 56 56 56 59 60 46 27 20 19 15 19 28 32 31 26 24 24 22 21 21 19 17 16 14 14 13 12 13 15 15 15 17 18 17 15 14 15 15 14 16 24 40 54 52 42 37
88 84 89 86 66 57 66 65 50 34 24 21 20 20 33 52 54 54 63 49 25 34 46 44 43 35 25 26 35 48 52 45 53 77 88 71 48 37 26 30 51 62 61 57 57 65 65 52 41 32 23 18 20 27 32 32 27 23 23 22 21 20 18 16 15 14 13 12 14 15 13 13 16 25 30 24 18 17 20 22 25 32 37 43 49 46 39 37
94 92 93 93 80 65 66 69 57 39 30 26 21 24 42 57 58 56 60 51 34 34 42 42 41 34 31 35 38 45 52 49 60 83 91 79 66 50 33 28 43 59 60 54 55 65 66 58 51 40 27 23 22 25 31 31 29 25 23 23 20 18 18 15 14 14 12 13 14 12 24 38 36 38 43 32 26 29 32 33 35 46 56 55 51 45 42 42
97 97 94 94 88 73 68 71 62 44 35 29 24 34 50 56 57 57 53 48 41 38 46 54 51 40 34 36 37 42 51 53 64 84 88 81 75 61 47 39 38 49 56 54 55 64 67 57 49 42 32 25 23 25 28 29 29 26 23 23 20 18 17 14 14 15 13 15 14 11 49 88 69 51 56 45 40 48 49 47 44 48 57 55 50 46 44 45
91 91 88 89 89 78 71 72 66 51 39 33 34 44 53 58 62 55 50 58 53 41 50 59 51 42 40 40 39 41 47 51 64 84 85 78 76 73 71 59 39 39 52 55 52 58 69 58 45 44 35 26 27 26 25 27 27 27 24 22 20 19 17 15 15 15 13 16 19 13 39 90 93 71 69 61 57 61 58 56 54 54 57 52 47 44 40 40
81 83 82 86 89 81 72 74 72 57 42 38 44 54 59 64 68 55 54 71 65 50 55 56 47 47 51 49 46 43 43 50 65 82 82 76 76 77 79 69 49 42 48 53 49 50 66 62 45 45 39 29 29 26 22 23 25 26 24 20 21 20 17 17 15 15 16 13 20 18 17 59 88 72 65 66 64 67 65 60 56 56 56 46 40 38 36 38
75 78 80 84 90 83 73 76 78 61 46 46 53 63 66 70 71 60 66 79 66 56 62 62 55 55 56 53 46 42 44 52 64 77 79 76 77 75 72 68 59 51 47 47 47 44 56 61 48 44 45 36 26 24 23 23 25 25 23 20 20 20 18 19 16 16 19 14 17 23 18 48 77 59 58 74 72 73 73 57 43 43 48 42 36 35 34 39
75 76 77 82 89 86 75 77 82 66 51 55 63 69 70 73 73 69 79 81 61 58 70 71 63 57 59 58 49 42 43 51 61 72 77 75 74 72 69 67 61 54 47 44 45 43 45 52 47 42 45 40 29 26 25 25 26 23 22 21 19 22 19 18 21 17 19 20 19 20 23 53 84 69 64 82 81 72 58 41 35 40 43 38 33 34 34 38
78 79 77 81 87 86 79 81 84 70 59 64 69 74 76 76 76 79 85 72 56 64 74 72 68 62 60 58 52 43 35 45 61 70 75 74 71 69 66 65 59 51 48 45 46 45 41 42 43 39 38 39 37 33 28 27 28 22 21 22 19 22 21 19 21 16 19 25 20 18 17 36 72 78 69 66 55 41 30 28 37 43 40 35 31 34 35 35
79 83 80 82 87 86 83 87 86 75 70 73 75 81 83 82 87 93 86 68 61 73 74 72 74 69 62 57 58 50 32 39 58 67 72 72 70 69 65 62 57 49 46 46 46 45 41 39 39 37 34 35 39 37 32 29 27 22 21 21 20 21 21 19 18 16 24 27 18 16 16 25 53 70 65 46 24 17 21 21 24 26 27 28 30 33 34 34
75 84 86 84 87 86 85 91 90 81 79 82 82 85 86 90 97 91 77 67 69 75 75 76 77 75 69 60 58 54 36 35 52 63 68 68 64 65 65 59 52 47 46 45 45 43 41 38 37 38 35 32 34 36 36 31 25 22 21 20 22 23 23 24 23 25 28 26 18 13 17 31 41 39 36 30 18 15 16 14 16 16 17 24 30 34 34 35
72 82 89 86 86 86 85 91 93 87 87 91 90 90 92 96 95 79 68 70 71 74 77 78 77 77 74 65 60 57 42 34 45 57 61 60 60 60 62 59 49 45 45 42 44 43 40 39 36 38 36 31 32 32 34 33 25 22 20 18 22 26 30 32 31 33 31 23 17 13 18 35 37 24 18 17 14 11 10 14 20 21 20 25 31 34 35 37
70 79 88 89 86 85 85 91 96 95 95 99 97 97 99 97 86 76 76 79 77 78 80 80 81 80 73 64 64 67 55 39 39 51 54 53 57 59 58 59 52 46 43 41 43 44 43 43 36 35 36 33 33 29 27 29 24 20 19 19 20 21 26 32 31 32 31 21 17 20 28 36 37 30 17 9 11 14 17 20 22 27 31 33 35 37 37 38
70 76 87 90 87 88 90 92 97 100 99 100 100 100 100 93 82 82 88 88 87 88 87 87 91 91 81 65 61 68 67 53 42 42 48 50 55 58 56 55 53 48 44 42 42 41 41 41 34 33 34 33 34 29 24 25 23 20 20 18 19 18 17 22 24 24 23 21 23 30 35 32 31 29 15 9 19 23 25 25 23 29 37 38 39 39 38 39
69 74 86 92 90 92 96 96 99 101 100 100 101 99 96 89 84 89 95 95 95 97 96 95 95 97 96 83 70 66 65 66 54 40 44 48 49 55 55 53 52 48 44 42 40 39 38 36 32 32 33 33 33 30 24 24 21 20 20 18 18 19 16 16 22 26 25 26 26 27 35 35 34 32 20 17 27 28 29 29 25 29 38 42 43 39 39 42
69 76 87 94 95 97 99 100 100 100 100 100 100 97 91 88 89 93 98 99 99 100 100 99 96 95 99 96 85 71 63 69 62 44 46 51 47 51 53 51 51 47 42 42 40 38 36 34 32 31 32 32 31 28 24 22 21 19 19 19 18 17 18 17 22 31 35 38 32 28 39 42 38 40 30 21 26 26 28 31 27 31 40 44 45 41 42 46
68 77 89 96 98 101 100 100 100 99 100 100 98 96 91 89 92 97 101 100 99 101 99 99 99 96 97 98 89 73 62 64 61 48 49 54 49 50 51 48 48 44 40 42 41 37 35 33 31 30 31 30 28 27 25 21 20 18 16 18 17 17 19 18 22 32 38 44 36 29 44 46 33 36 31 19 20 21 24 30 29 33 40 44 46 44 45 50
68 77 89 95 99 101 99 99 101 99 100 99 96 97 96 94 97 100 101 99 99 101 98 98 99 96 98 98 87 72 59 57 58 49 47 53 50 47 46 45 45 42 40 42 40 36 37 39 34 28 28 29 26 25 24 20 20 19 16 17 15 16 18 16 20 24 30 45 44 35 51 53 30 25 24 15 14 17 21 28 30 33 38 40 42 41 42 49
67 77 86 92 99 100 97 98 100 100 100 99 97 99 99 98 99 99 100 100 100 101 98 98 100 98 97 92 81 73 63 58 58 50 47 53 48 42 40 40 41 40 39 41 40 37 38 42 38 29 26 29 27 24 23 20 19 20 19 17 16 16 16 16 18 15 18 43 57 54 59 51 27 23 24 15 13 16 20 22 23 30 35 36 37 38 42 47
64 77 86 93 99 99 96 99 100 100 100 99 100 101 100 100 97 96 101 99 96 98 99 99 97 93 93 89 81 73 65 62 62 54 53 54 46 42 41 35 37 41 40 40 40 37 38 42 43 34 25 25 26 24 22 19 19 20 19 17 16 16 16 20 25 19 12 24 43 54 58 42 22 22 25 18 15 16 17 17 19 24 28 30 31 37 44 48
63 78 89 95 100 99 98 100 100 100 100 100 101 100 99 100 96 96 99 95 90 95 99 98 93 88 90 93 84 70 61 62 61 55 55 53 44 42 40 34 35 40 41 39 37 36 38 42 44 36 27 25 25 23 22 20 19 19 18 18 17 15 15 21 29 24 15 16 25 36 43 34 22 21 23 20 17 16 15 16 19 21 22 25 31 40 48 50
62 75 86 92 99 101 99 99 100 100 100 100 101 99 100 99 94 93 95 92 93 99 99 95 89 86 90 88 78 66 62 63 60 53 52 50 41 38 37 34 34 38 41 39 36 37 39 39 41 37 29 24 22 21 21 20 19 19 18 18 17 16 15 18 22 19 15 19 23 27 32 30 24 22 22 22 19 18 19 18 20 23 23 27 35 43 50 51
59 69 79 86 95 100 100 100 100 100 100 101 100 100 101 97 92 92 94 95 97 100 99 91 85 88 86 72 62 62 65 67 62 55 53 50 43 39 36 33 32 36 40 38 35 36 38 38 40 38 33 27 24 25 23 20 19 18 18 18 16 15 15 15 16 17 18 19 20 25 31 29 24 22 23 25 23 21 22 24 25 28 27 29 38 46 50 51
56 63 73 84 94 100 100 99 100 100 100 99 98 98 96 93 92 92 94 98 96 96 97 90 89 94 80 60 60 67 70 70 62 53 52 48 41 37 35 32 31 34 37 37 40 39 38 42 44 41 40 39 35 32 25 21 20 18 18 19 16 14 15 15 15 19 21 21 19 22 25 22 22 25 24 24 27 26 28 30 31 33 33 32 38 44 48 49
56 60 68 80 93 100 100 100 100 100 99 98 96 94 91 93 97 94 94 97 94 92 94 89 89 91 77 65 65 67 74 75 62 52 48 44 43 44 39 30 28 34 36 37 44 44 40 45 48 43 38 33 27 24 21 19 20 19 18 19 18 16 15 14 15 18 19 20 19 19 19 17 20 26 25 24 27 28 30 31 32 34 37 37 38 41 45 49
55 59 66 78 91 97 98 100 100 99 100 100 96 94 93 96 100 97 93 90 84 82 85 83 82 81 78 74 63 61 74 73 59 52 48 49 56 53 40 29 27 33 38 40 42 41 39 44 47 43 37 28 20 19 20 19 19 19 19 18 18 18 16 13 14 15 16 19 20 19 20 20 18 19 21 23 27 28 30 31 29 30 34 37 39 41 44 49
53 55 63 76 90 97 98 100 100 99 101 100 96 96 95 93 97 96 88 82 75 71 73 78 81 78 73 68 59 61 68 60 50 49 51 59 63 45 30 28 27 31 41 46 45 40 41 47 47 41 38 31 23 19 19 19 18 18 18 18 17 15 14 13 12 13 13 16 18 16 18 21 20 16 16 18 21 24 26 28 28 30 33 36 38 40 43 47
50 51 56 66 82 95 99 100 99 99 101 100 98 99 95 91 94 91 83 79 73 65 65 74 83 79 65 56 57 61 61 54 51 51 56 68 61 35 25 27 25 34 48 50 46 42 41 46 48 43 38 33 26 20 19 19 18 17 17 17 16 14 13 12 12 13 13 14 15 14 14 19 22 19 16 16 20 24 27 28 30 31 33 34 37 40 42 44
48 50 52 58 71 88 98 101 99 98 100 99 100 101 96 91 89 82 79 82 77 68 65 68 76 76 68 61 59 60 61 58 56 56 65 74 58 33 27 26 24 39 52 49 45 41 38 44 49 43 37 36 31 22 18 18 17 16 16 15 14 13 13 13 13 13 13 14 14 13 14 21 27 25 22 24 29 33 34 32 32 32 33 35 38 40 42 44
52 52 52 55 65 80 94 101 100 98 100 99 99 101 99 95 88 79 77 78 75 70 64 61 67 75 76 71 63 60 60 59 58 62 70 73 59 38 29 28 30 41 50 48 42 39 39 44 46 40 35 37 35 26 19 17 16 14 14 14 14 13 13 14 14 13 14 14 15 15 14 20 28 28 26 29 32 34 35 35 35 35 35 36 38 40 42 45
51 49 50 54 61 74 88 98 99 99 100 101 99 98 100 98 86 75 75 74 69 63 57 58 72 80 78 71 62 58 60 61 62 65 67 64 52 38 32 34 36 41 46 44 40 42 46 46 43 41 36 35 36 31 22 16 18 20 16 13 13 14 14 15 15 14 13 13 15 16 13 16 24 26 26 28 31 34 36 36 36 37 37 38 40 41 43 45
Wind_Speed
15 16 16 18 19 20 20 20 20 20 19 19 19 20 20 21 22 23 23 24 24 25 26 27 27 27 28 30 32 35 37 39 41 43 44 36 33 39 38 35 36 37 38 38 41 43 44 43 43 44 45 47 49 48 46 45 43 41 43 46 47 46 45 43 41 40 39 36 33 30 26 26 21 19 18 18 20 21 19 17 19 17 12 13 13 13 13 13
16 18 19 20 21 21 21 21 20 20 19 19 19 19 19 19 20 21 22 23 23 24 25 26 27 27 29 30 30 32 34 35 37 39 38 35 38 41 38 35 35 36 36 35 36 38 39 40 39 40 44 46 48 47 46 45 44 45 46 49 51 49 46 44 42 40 38 35 33 29 25 24 23 22 16 15 21 22 18 18 19 15 11 12 12 11 11 10
19 21 22 22 22 22 21 20 20 20 19 19 19 18 18 18 18 19 20 21 22 23 24 25 26 27 29 30 30 31 31 32 33 33 34 37 41 40 37 36 35 35 34 32 33 35 37 37 38 39 42 45 46 45 45 45 45 47 48 51 52 49 45 44 41 39 36 33 31 26 23 26 25 20 14 13 20 21 18 19 17 11 11 11 10 9 7 8
22 23 23 22 22 21 21 20 20 20 20 20 20 20 20 19 19 19 20 21 22 23 24 24 25 26 28 29 30 30 30 30 30 30 32 37 40 39 37 36 35 35 33 31 32 33 34 36 38 39 41 44 44 44 45 46 46 47 49 52 51 45 44 43 39 37 33 30 28 25 25 28 24 18 14 13 18 19 16 18 17 13 12 9 7 5 7 9
22 22 21 21 20 20 20 19 19 19 20 20 21 22 23 23 23 23 22 22 22 23 25 25 25 26 27 28 29 30 29 27 26 27 31 34 36 37 37 35 36 35 32 32 32 32 33 35 37 39 41 43 43 44 47 46 45 47 49 50 47 44 43 40 36 33 29 27 26 26 27 28 25 20 18 15 18 20 18 19 17 13 10 7 4 4 6 7
20 20 20 19 19 19 19 20 20 20 20 21 22 23 24 25 26 26 26 25 24 24 25 27 27 27 27 27 29 29 28 24 21 22 26 30 33 34 35 35 36 36 34 34 33 33 33 34 37 40 42 43 43 45 47 44 44 47 48 47 45 43 41 35 32 29 25 25 27 27 27 27 26 23 20 18 18 17 17 19 16 10 8 5 4 6 6 6
19 19 19 19 19 20 21 22 23 23 23 24 24 25 25 26 26 27 27 27 27 26 26 27 28 29 28 28 29 29 30 25 20 20 21 26 30 31 34 35 35 37 36 35 34 34 34 35 37 40 42 43 43 45 45 43 43 46 47 45 44 41 38 34 30 27 25 25 27 27 28 30 28 22 17 17 15 11 13 17 13 8 7 6 5 6 7 7
19 19 19 20 21 22 23 25 25 26 27 27 28 27 27 27 27 27 27 27 28 28 27 27 28 29 29 29 29 31 30 21 20 24 24 24 27 29 33 35 36 37 36 35 34 35 35 37 38 39 41 42 42 44 43 42 43 47 47 44 43 40 36 33 30 27 26 26 27 29 32 32 26 20 17 17 15 11 13 15 11 5 4 5 5 8 8 7
19 20 20 21 23 24 26 27 28 28 29 29 29 29 29 29 28 28 28 28 28 28 29 28 29 30 30 30 32 34 27 17 21 27 26 26 25 27 31 35 37 37 37 35 34 36 38 39 39 39 40 41 41 42 42 42 44 47 47 44 41 39 34 32 31 29 28 28 29 31 33 31 25 22 22 20 17 14 13 11 7 4 3 5 6 7 6 3
20 20 21 23 24 25 27 28 28 28 28 28 28 28 27 28 28 29 29 30 29 29 29 30 30 31 31 31 33 35 23 18 25 25 25 27 26 27 30 33 36 37 37 37 37 38 39 38 37 37 38 39 40 41 41 43 45 43 44 44 40 37 35 33 33 31 29 30 30 31 30 27 25 25 25 21 17 16 16 12 7 4 4 4 4 4 1 1
20 21 22 23 24 25 27 27 27 27 26 26 25 24 24 25 27 29 30 32 32 31 31 31 30 32 33 32 36 32 20 19 26 25 26 28 28 29 30 33 36 37 38 38 39 40 39 37 36 36 37 38 40 41 42 44 45 40 37 41 42 38 36 36 35 33 31 31 30 28 26 24 24 25 25 21 18 17 18 15 9 5 4 4 3 2 3 3
19 20 22 23 24 26 26 26 26 25 25 24 22 21 22 24 25 27 29 30 31 32 32 32 31 32 33 35 38 29 18 22 26 27 29 29 31 31 31 33 35 37 38 39 40 40 39 37 37 38 38 38 39 38 39 43 43 40 35 36 40 40 40 39 37 34 33 33 30 25 24 25 25 24 23 20 19 20 19 17 13 9 7 6 5 4 4 3
19 20 22 23 25 26 26 25 24 24 24 23 21 20 22 24 25 26 26 27 27 29 31 32 32 31 33 38 38 27 23 27 28 31 30 30 32 32 31 32 34 36 37 39 40 40 40 39 40 42 38 37 39 36 36 40 42 40 37 35 35 39 43 42 38 36 34 33 29 22 24 27 25 23 22 20 20 22 21 19 17 13 10 8 7 6 6 5
20 21 22 24 25 25 24 23 22 23 23 22 20 21 23 23 24 24 24 25 25 26 29 30 32 31 34 39 34 27 28 30 31 30 27 29 32 32 32 31 32 35 36 38 40 40 40 41 42 43 41 38 39 37 33 33 38 39 35 36 36 37 43 43 39 37 35 33 28 23 27 27 23 21 21 21 22 24 22 20 18 15 12 10 8 9 9 7
22 23 23 24 24 24 22 21 21 22 22 21 21 23 23 23 23 23 23 25 25 27 28 29 30 31 36 39 31 28 30 29 28 27 25 30 35 34 32 30 32 35 36 37 38 40 40 41 44 44 44 42 36 37 34 28 33 38 34 36 40 38 39 41 39 38 37 32 28 26 27 26 23 22 21 23 25 24 22 20 18 15 13 11 10 11 10 9
24 24 24 24 24 23 22 21 21 21 21 21 21 22 23 23 23 23 24 25 25 27 29 29 28 30 35 33 25 26 29 26 26 28 31 33 35 36 34 31 32 33 35 36 37 39 40 42 45 44 44 43 38 36 36 29 29 38 39 36 38 39 36 36 37 38 37 32 30 29 26 24 24 22 22 26 26 23 21 20 17 15 13 12 11 12 12 12
26 26 26 25 24 23 22 22 22 21 21 22 22 21 21 22 22 23 25 26 27 28 29 28 26 30 33 27 21 19 19 24 27 29 33 34 34 35 37 36 31 31 32 34 35 38 41 42 43 44 43 44 41 35 32 34 34 37 41 36 32 34 34 34 35 35 35 34 33 32 28 25 23 20 22 24 23 20 19 18 16 15 13 13 14 14 15 14
27 28 27 26 25 24 23 23 22 21 21 23 23 21 20 21 22 24 26 27 28 28 28 27 25 29 28 20 17 13 13 22 26 26 29 33 33 33 38 38 31 30 30 32 35 36 39 40 40 42 43 45 45 42 38 39 42 39 38 36 28 26 33 36 33 32 35 35 33 32 30 29 25 21 21 20 19 17 15 15 14 15 15 15 16 16 16 15
27 28 28 27 25 24 24 24 23 22 23 23 23 22 20 21 22 24 26 27 28 27 27 26 25 28 25 15 12 14 18 20 21 23 26 31 33 33 36 38 32 31 32 33 35 37 38 37 37 42 48 53 52 52 45 32 33 37 33 35 31 24 30 37 33 30 32 32 32 32 31 31 30 27 23 20 20 18 16 17 16 16 17 17 17 18 17 17
28 27 28 28 25 25 25 24 23 23 24 23 23 22 21 22 22 24 25 27 27 26 26 26 26 28 26 19 15 17 20 20 20 22 25 30 35 36 36 37 35 33 35 35 35 37 38 36 42 50 54 57 53 51 45 23 19 31 29 30 34 28 27 34 33 28 27 27 29 31 31 31 30 28 25 21 20 20 19 20 19 17 17 18 19 19 19 19
30 29 28 27 25 24 25 25 23 24 24 22 23 23 22 23 23 25 28 29 25 22 24 23 25 27 24 18 14 16 19 21 21 21 24 30 35 37 37 38 37 37 38 36 33 34 36 40 49 54 50 51 50 48 45 28 18 26 26 24 31 30 27 29 31 28 24 23 25 27 30 31 29 26 26 24 21 20 21 21 20 19 18 19 20 20 21 20
33 32 29 25 24 23 24 25 22 23 24 22 22 22 23 22 23 25 29 32 25 17 21 20 22 26 23 19 13 14 19 19 20 21 23 27 33 36 37 40 40 39 38 35 33 34 39 46 50 48 45 45 47 47 46 35 23 22 23 23 26 28 26 24 27 28 24 22 22 24 28 30 28 27 26 25 23 22 22 21 20 20 19 19 20 20 21 19
35 34 29 24 23 22 23 24 22 22 22 21 21 22 22 21 23 24 26 30 25 13 15 18 21 23 20 20 17 17 20 17 19 22 20 22 31 34 36 41 41 38 36 36 38 39 39 44 44 42 41 43 43 44 44 40 31 23 21 24 25 25 26 22 22 26 25 23 21 20 24 28 29 29 29 26 24 24 23 22 21 21 20 19 19 19 19 19
35 33 29 24 23 22 22 22 22 21 20 21 21 22 21 19 22 24 24 27 23 11 9 13 17 20 18 16 16 18 18 16 20 22 19 19 24 28 32 38 40 38 38 38 39 42 33 26 34 41 39 40 41 40 42 42 39 32 24 24 25 24 25 22 19 23 24 23 25 21 19 24 29 30 30 28 26 27 26 24 23 22 22 22 21 20 19 19
34 32 28 24 22 22 21 21 21 20 19 20 20 21 20 19 20 22 22 24 20 11 8 11 11 13 12 11 13 17 16 16 22 23 19 19 19 22 26 28 36 40 40 38 37 41 33 13 20 39 39 39 39 39 44 44 40 38 30 24 24 22 22 22 18 21 22 21 27 26 13 13 24 28 29 31 30 29 28 26 25 24 24 25 23 22 20 20
34 31 27 23 22 22 21 20 20 19 18 18 19 19 19 18 19 19 20 20 14 10 12 12 8 4 3 5 9 12 13 16 24 24 19 22 21 21 20 19 31 39 38 37 32 37 38 17 11 30 39 40 38 37 42 45 38 38 35 27 23 20 20 22 19 19 20 17 22 27 15 8 19 27 29 32 31 30 30 27 26 26 26 27 25 22 22 21
32 30 27 23 22 22 20 19 19 18 17 17 17 18 18 18 18 18 16 11 8 9 13 12 5 1 1 2 5 10 9 12 22 26 21 22 22 20 19 17 25 33 33 32 29 32 39 28 14 22 36 39 41 40 42 45 39 35 36 29 22 21 19 19 20 17 15 12 12 22 22 13 18 28 30 31 32 30 32 30 28 29 29 28 26 24 23 22
30 28 26 24 22 22 20 18 19 17 15 14 15 16 17 16 15 15 10 4 4 9 12 10 3 1 4 3 5 10 8 6 17 27 23 20 20 19 18 17 19 25 29 31 31 28 34 36 23 21 33 39 44 44 39 42 37 31 35 31 23 21 18 18 20 17 12 8 9 18 23 14 12 26 32 32 34 33 33 33 30 32 32 29 27 25 24 24
29 27 26 23 21 21 20 18 18 17 13 12 13 14 15 15 13 11 6 1 5 10 12 10 5 3 5 6 5 7 11 7 8 20 25 20 19 20 17 14 16 20 24 30 31 20 21 34 28 19 29 39 42 41 36 36 34 29 32 31 23 18 15 16 15 14 10 9 15 21 23 13 6 21 36 37 37 37 35 35 34 34 33 29 28 26 25 25
30 27 26 24 21 19 19 18 17 15 13 11 12 13 14 14 11 7 1 3 8 12 12 7 3 3 4 6 5 4 14 12 4 12 24 21 18 21 18 14 16 20 21 25 27 18 13 25 30 24 26 31 34 36 34 32 30 30 31 28 20 14 12 11 9 10 6 8 24 29 24 17 7 16 38 41 34 34 35 36 36 35 34 31 29 27 26 26
31 27 26 25 20 18 17 16 15 14 12 11 12 12 12 12 9 2 2 7 11 10 9 5 1 4 4 6 5 4 13 16 8 8 19 21 16 19 20 16 16 20 21 20 23 23 16 19 32 33 26 23 25 32 34 29 28 31 32 27 18 12 11 8 6 8 5 8 25 30 23 19 13 16 33 37 32 32 33 34 34 34 35 34 32 28 27 26
33 28 26 25 20 17 17 15 14 13 12 12 11 12 11 8 6 6 6 11 9 7 9 6 4 6 5 7 7 5 12 17 13 11 15 15 13 17 21 21 21 20 20 21 23 25 23 24 29 30 26 23 22 28 32 30 29 32 32 28 16 7 7 6 3 5 7 7 11 17 16 16 19 23 27 29 31 34 33 31 30 30 31 33 33 30 28 28
34 28 25 24 20 16 15 13 13 13 12 12 12 12 11 5 4 8 10 11 8 9 13 9 6 8 9 10 9 7 11 16 15 15 14 11 11 16 21 23 24 20 15 21 27 25 23 24 25 24 24 25 25 29 35 35 34 36 36 32 19 7 4 6 5 3 7 8 8 13 12 10 16 22 24 27 30 32 31 30 30 30 28 29 31 31 30 29
35 29 24 23 19 15 13 12 12 13 13 14 13 11 9 6 6 10 12 11 11 14 15 12 11 10 12 14 12 9 11 15 16 16 14 13 14 17 22 24 25 20 11 16 26 25 18 16 23 29 26 27 29 30 36 39 36 38 39 34 26 17 8 5 5 3 3 4 7 12 9 5 9 13 17 24 28 31 32 31 31 31 30 30 31 32 31 30
35 29 22 21 19 16 14 11 12 14 14 15 14 12 11 9 11 12 11 11 13 15 15 17 18 14 12 17 18 14 11 13 16 16 13 16 17 19 24 27 27 22 12 14 24 24 18 13 21 31 29 27 29 28 32 36 34 35 35 31 30 29 16 5 3 6 6 2 3 10 8 6 10 12 17 23 27 33 36 34 31 30 31 32 32 32 31 30
35 29 22 20 20 18 15 13 12 14 15 15 14 15 16 15 15 15 14 13 14 16 19 20 19 13 10 13 18 20 16 10 12 15 14 17 19 21 25 27 27 26 17 16 22 21 16 14 17 27 29 26 25 27 31 34 32 32 34 34 35 32 18 7 3 4 5 2 5 11 9 8 12 13 19 24 26 33 38 36 31 28 30 33 33 33 31 30
34 29 22 21 22 21 18 14 13 15 16 14 16 18 20 21 20 19 17 16 16 18 19 18 15 11 7 7 12 20 19 12 12 14 14 15 17 21 27 26 26 28 20 14 19 18 11 11 15 23 29 25 20 23 30 32 30 31 36 37 30 22 17 14 7 0 2 2 5 10 12 15 15 13 19 26 28 33 37 35 31 29 32 34 33 32 30 29
34 28 22 22 24 21 17 13 13 15 14 14 19 22 22 24 24 24 23 22 20 17 15 15 12 9 6 2 7 17 21 16 15 16 15 14 14 19 29 29 25 29 24 12 13 17 10 7 12 20 25 24 19 21 28 32 31 29 34 34 24 17 17 17 8 1 2 1 3 5 9 17 22 19 22 30 33 35 35 33 33 32 33 33 32 31 29 28
34 27 23 23 22 18 15 11 11 13 13 15 21 22 22 26 25 24 25 23 19 14 11 12 10 6 5 0 8 15 20 17 15 16 15 15 14 16 25 31 26 28 28 16 13 17 9 4 9 18 22 23 22 26 32 36 36 28 24 29 29 21 18 18 11 4 3 2 2 2 1 10 24 25 24 29 33 35 34 32 34 34 33 31 30 29 28 28
32 28 25 25 21 18 16 13 12 12 14 18 22 22 23 26 23 20 20 19 18 13 9 11 9 7 5 5 14 15 16 16 15 17 14 13 15 13 18 29 29 27 29 21 15 15 9 1 4 15 23 25 26 32 37 40 43 35 25 28 35 30 20 17 17 14 8 2 2 4 1 6 22 26 24 27 28 30 33 31 32 33 31 29 28 27 27 27
31 28 27 25 22 23 21 15 13 13 16 18 21 21 20 20 18 17 14 12 13 9 6 7 6 6 3 8 15 13 15 16 15 16 13 12 16 13 13 26 31 28 27 25 20 18 12 3 3 9 22 29 30 33 35 37 41 39 31 27 31 33 23 12 11 17 18 9 3 4 2 6 20 24 23 25 24 26 29 29 30 29 27 26 26 25 25 26
31 29 28 24 22 26 25 18 17 16 16 18 17 15 14 14 14 13 8 5 6 5 3 4 2 1 2 10 13 12 16 16 15 17 14 11 15 11 9 23 32 29 27 26 24 19 12 7 8 4 17 28 30 27 29 32 33 34 31 24 23 30 29 16 8 13 18 14 9 5 3 8 19 22 20 23 25 26 26 27 27 26 23 23 24 23 24 24
30 29 28 23 22 27 27 22 22 21 19 17 12 9 9 12 12 10 6 4 5 4 4 5 6 6 9 14 15 13 14 14 14 17 13 9 12 7 7 20 31 29 25 23 21 18 13 11 9 5 7 18 23 23 25 29 30 31 32 26 21 27 33 24 14 14 17 15 11 4 1 8 19 21 20 24 29 30 29 27 26 25 23 23 23 23 23 23
29 28 28 23 22 28 29 25 25 23 19 15 10 8 7 9 10 7 5 5 4 4 6 7 8 9 11 15 16 14 10 7 9 12 8 6 8 4 4 17 29 31 26 19 18 19 15 10 8 4 1 8 13 15 20 27 31 33 33 29 21 22 31 31 20 13 14 17 17 9 3 9 19 22 21 24 30 33 32 29 27 26 24 22 23 24 24 23
30 29 29 23 22 29 30 25 24 21 17 15 13 10 8 6 7 6 4 4 4 6 7 6 8 11 13 17 15 11 6 2 3 6 6 7 6 4 3 16 30 34 26 16 11 13 13 9 8 6 3 7 10 11 19 29 33 32 33 33 25 20 25 32 26 15 9 12 17 13 8 12 19 24 25 27 30 32 32 30 28 27 25 22 23 25 25 25
30 31 31 25 23 29 30 25 23 21 17 16 14 12 10 7 7 7 6 5 5 7 7 7 9 12 14 16 12 7 2 1 0 3 5 5 5 5 2 16 33 36 27 20 14 10 8 6 9 9 7 12 21 20 23 30 33 32 32 33 31 26 22 25 25 18 11 11 14 14 13 16 20 23 25 27 29 29 28 28 27 27 26 24 23 24 25 25
29 29 32 29 25 27 29 26 24 23 20 16 13 14 12 10 11 11 10 10 9 10 10 8 9 9 7 8 7 3 3 5 3 3 3 4 8 5 5 16 29 34 28 22 16 11 8 9 8 8 7 10 24 24 21 25 28 31 30 26 27 28 24 21 21 18 13 10 10 10 12 19 23 22 22 24 27 27 26 26 25 25 26 25 25 25 26 26
26 26 29 29 26 27 28 27 26 26 24 18 14 15 15 12 13 14 14 13 12 11 8 7 10 9 8 9 6 4 6 3 2 4 3 5 7 2 13 15 22 30 28 21 17 14 10 11 7 5 5 4 19 24 23 21 21 25 27 25 24 23 22 20 18 16 14 11 9 7 8 15 21 22 22 23 25 26 26 27 25 25 26 27 27 27 27 27
25 25 26 25 25 26 26 25 25 26 26 23 18 16 15 13 12 12 13 14 13 10 6 10 15 12 8 6 5 5 4 2 3 3 1 9 10 11 18 16 19 28 25 20 19 16 10 10 8 8 6 2 14 21 23 22 18 18 21 24 24 19 17 17 15 13 13 11 12 10 7 11 17 20 24 27 29 29 30 29 27 27 27 27 27 26 26 26
25 26 26 24 24 24 23 22 21 21 23 23 20 17 14 12 10 10 12 13 11 8 6 10 14 12 9 7 5 3 5 4 3 4 3 12 11 15 18 18 24 27 21 18 18 15 11 10 9 9 6 4 11 15 19 21 19 16 17 22 23 18 15 15 14 14 13 10 10 10 8 11 16 21 25 31 33 32 31 29 28 27 27 27 26 26 25 25
23 25 26 25 24 24 23 22 19 19 21 22 21 19 16 12 9 9 10 11 9 7 6 9 11 11 9 7 5 6 6 4 4 4 5 9 6 18 21 23 27 25 19 16 14 12 12 11 7 8 7 4 12 13 16 18 16 16 19 22 22 18 15 13 12 15 14 9 8 10 10 10 14 19 23 28 31 32 32 31 29 28 27 27 26 24 23 23
21 22 24 24 24 24 23 22 20 20 21 20 18 16 13 10 8 8 9 9 7 5 3 5 9 9 6 3 5 5 4 5 5 3 5 4 10 23 27 27 27 22 18 14 12 10 11 12 6 7 7 4 11 12 16 18 13 12 17 19 18 18 15 12 11 14 15 11 8 10 12 11 12 17 21 25 30 33 32 30 28 27 27 26 25 23 21 21
Wind_Direction
306 306 306 307 307 305 305 303 301 299 296 293 290 287 286 284 283 282 280 278 276 274 271 269 266 264 262 261 259 256 253 250 247 245 246 245 243 244 240 238 239 239 238 237 237 238 237 236 235 235 236 237 238 239 239 241 241 239 240 240 240 241 244 249 254 257 262 267 269 273 275 273 264 246 255 283 288 283 273 261 259 259 260 267 277 285 287 290
310 311 311 310 310 309 309 308 307 305 303 300 297 294 291 289 287 286 284 282 280 277 274 271 268 266 263 263 262 260 257 253 248 246 246 243 239 240 239 236 237 237 236 234 233 234 234 233 232 231 231 233 234 235 234 236 237 237 239 241 242 245 249 254 258 260 263 267 270 272 268 258 250 242 250 284 285 275 262 252 257 260 258 261 266 270 277 282
315 315 315 315 314 314 314 313 312 311 309 307 304 302 298 296 293 291 290 288 285 282 279 275 271 268 266 264 263 263 261 257 251 247 244 240 237 237 236 234 233 234 233 230 229 230 229 227 226 227 227 228 230 230 230 232 233 235 238 240 244 248 251 255 257 260 263 266 268 264 254 243 236 237 247 277 277 265 256 252 255 256 251 250 249 254 263 266
318 318 318 318 318 317 316 316 315 314 313 312 311 309 306 303 300 297 295 293 292 289 285 281 276 272 268 266 264 263 264 262 256 248 242 239 237 235 233 232 231 231 229 226 225 225 224 222 221 222 223 225 226 225 226 228 230 232 235 239 245 248 250 253 256 259 262 261 260 252 242 235 225 229 253 277 275 263 256 254 254 253 248 244 244 260 277 276
319 319 320 320 320 319 318 318 316 315 314 313 312 311 310 307 305 303 299 296 294 293 290 286 282 277 272 269 266 264 264 266 262 252 244 240 237 234 231 229 229 228 224 221 220 218 219 217 217 218 220 221 220 221 224 225 226 230 235 240 244 246 248 251 254 255 254 251 249 241 236 232 220 226 253 271 274 268 260 256 255 251 246 247 274 315 304 300
320 321 322 323 323 321 321 320 317 316 315 314 312 310 309 307 306 305 302 300 295 293 291 288 286 281 277 272 268 265 261 260 262 256 247 242 238 233 230 227 226 226 220 217 216 214 214 213 214 216 217 218 218 220 224 222 223 229 234 238 239 241 244 247 248 247 244 239 237 233 232 233 226 231 252 265 271 272 261 255 254 247 246 266 304 332 330 339
324 325 325 324 323 321 320 318 317 316 315 314 313 312 310 307 306 304 302 300 297 294 290 287 285 282 280 275 270 266 259 255 257 257 251 244 239 231 227 225 224 224 221 216 214 212 211 211 212 214 216 217 217 219 222 219 221 228 231 233 235 237 240 241 240 238 235 231 232 231 232 235 232 234 248 255 262 273 262 255 254 247 253 278 306 330 344 357
327 326 325 323 321 320 318 317 316 315 314 313 312 312 311 309 308 305 303 300 297 294 290 287 283 281 279 276 272 265 261 258 252 248 244 241 236 229 225 222 221 222 220 216 213 211 210 210 210 212 216 216 216 218 219 218 219 226 229 229 231 233 235 237 234 230 228 227 229 231 233 234 230 230 241 247 254 268 262 252 253 258 269 286 306 319 332 353
327 325 323 321 320 319 318 316 314 313 312 312 312 313 312 312 311 311 308 304 299 294 290 286 282 279 276 274 272 267 264 256 247 243 239 237 234 229 225 222 220 219 217 211 208 209 209 209 209 210 215 216 216 218 217 217 220 224 228 226 227 230 231 231 229 224 223 225 228 230 232 232 225 228 242 249 254 264 263 254 258 282 308 306 310 312 324 8
326 324 322 320 319 318 317 314 312 311 312 312 313 314 314 315 316 318 316 312 306 298 291 285 280 277 273 271 268 268 268 252 244 243 239 235 231 227 224 222 220 219 217 212 206 207 209 208 207 208 215 215 216 217 215 217 220 223 226 226 225 227 227 227 226 222 220 224 227 229 231 230 225 231 245 252 255 260 258 256 267 289 307 308 306 298 285 122
327 325 323 321 319 317 315 312 311 311 311 312 313 314 316 318 319 321 320 317 312 304 296 287 280 274 270 267 263 267 272 253 243 239 235 230 225 224 222 220 219 216 216 215 208 206 207 206 204 206 212 214 214 216 216 217 220 220 223 226 225 224 224 224 223 220 219 222 224 229 233 231 229 234 244 251 253 254 250 251 260 266 269 268 262 243 204 182
328 326 323 321 319 316 314 311 311 310 310 311 311 313 316 318 320 320 320 319 315 307 297 289 283 274 268 263 262 266 264 249 240 233 230 226 222 220 220 220 218 214 213 213 210 205 204 202 201 205 209 212 213 214 216 218 220 220 218 222 223 223 224 223 222 220 219 220 219 226 237 235 231 232 238 244 246 246 246 252 259 256 252 245 228 221 210 196
326 324 322 320 318 316 314 311 309 307 309 309 308 310 312 314 316 317 318 316 312 306 297 290 285 279 269 262 262 263 253 244 236 230 228 224 221 218 219 221 218 215 212 211 209 205 202 199 200 204 206 209 210 210 215 218 220 220 218 220 220 222 224 220 220 222 220 219 214 221 238 235 227 228 234 238 239 240 243 252 257 255 254 245 227 223 219 208
322 321 319 319 318 317 314 309 305 304 307 305 302 304 307 310 311 313 315 313 309 304 298 293 288 284 274 265 262 258 249 243 236 232 227 223 222 218 217 220 219 215 212 209 207 204 202 199 200 202 203 207 209 209 212 217 220 219 219 221 219 222 224 218 217 220 220 218 210 216 239 236 225 229 234 232 231 235 241 248 247 243 245 241 232 226 218 213
318 318 318 319 319 318 312 305 300 301 305 303 299 300 302 305 308 312 314 313 310 303 298 292 287 285 278 272 266 255 250 246 237 230 221 220 221 216 212 216 217 215 211 209 205 204 202 201 201 201 201 203 205 209 211 212 217 216 216 219 219 221 224 218 214 216 217 215 206 215 237 235 226 233 233 223 222 230 239 241 235 231 233 234 231 224 217 218
315 316 317 318 318 316 309 301 296 298 304 305 303 302 302 305 309 314 314 312 308 300 295 289 285 282 279 278 272 255 249 246 237 225 218 219 218 211 208 212 215 213 210 207 203 202 201 202 202 201 201 201 202 206 208 209 212 213 214 216 218 220 222 220 215 214 214 211 208 215 230 231 228 233 227 219 221 227 232 230 226 224 228 230 225 220 221 226
313 314 315 315 316 314 308 300 295 296 303 307 307 308 307 309 314 316 313 310 304 298 293 287 283 279 276 278 271 258 248 239 231 224 219 219 219 209 205 210 213 211 208 204 201 200 200 202 202 201 201 200 201 201 203 211 210 207 212 214 216 219 219 217 214 211 209 208 211 217 225 230 230 229 220 216 219 221 223 224 224 225 230 229 222 218 222 228
312 311 311 312 313 313 310 303 298 297 301 307 310 313 315 317 318 315 310 306 300 295 290 285 279 274 274 276 264 247 230 226 224 222 220 218 219 212 205 208 210 208 206 203 201 199 199 202 202 202 201 200 200 199 201 210 209 203 205 208 208 213 216 215 211 205 203 207 214 221 225 228 227 224 219 214 213 213 220 228 229 230 233 228 222 220 223 228
315 312 310 310 309 311 311 306 303 300 299 306 312 316 320 320 318 312 307 304 300 294 288 283 275 267 267 272 258 232 223 225 220 215 214 214 216 214 206 203 204 204 204 203 201 199 199 200 200 202 202 200 200 200 202 208 211 206 204 206 205 206 213 215 209 199 200 209 217 221 223 225 225 225 223 218 213 213 220 225 227 230 230 226 224 225 227 232
321 317 311 309 307 308 310 308 306 302 300 307 313 316 315 314 312 309 306 303 300 295 289 285 280 272 265 263 259 246 237 229 221 211 206 207 211 213 207 200 201 202 202 202 200 199 199 201 203 204 203 201 200 201 202 201 207 208 206 207 208 207 211 214 210 199 201 214 220 219 221 224 225 224 224 220 215 217 220 221 224 228 227 228 228 228 231 234
328 324 318 312 307 306 309 310 308 304 304 309 313 315 313 313 313 313 311 309 309 297 287 287 284 277 267 259 256 258 251 233 221 209 200 203 207 210 205 198 200 201 201 200 199 198 200 206 209 207 205 203 202 203 203 196 187 199 203 202 206 210 211 214 214 206 205 218 220 218 220 223 224 223 222 221 221 225 225 223 224 227 227 228 230 230 231 232
331 329 325 316 307 305 307 310 309 305 306 309 312 313 313 314 314 315 313 314 325 311 282 278 276 275 271 263 261 264 258 240 219 200 192 200 206 207 203 198 200 201 199 197 197 198 203 210 212 208 206 204 203 206 206 200 187 187 193 194 199 206 207 213 217 212 210 218 219 215 217 220 222 223 221 221 227 232 231 228 229 231 231 229 229 229 232 234
332 329 327 319 308 304 306 308 308 306 307 309 310 311 313 315 312 314 309 310 330 330 279 272 267 268 267 260 261 260 253 239 213 188 180 200 207 207 204 199 200 201 198 196 197 198 205 214 213 208 206 204 204 208 209 207 200 191 190 191 192 196 200 205 209 211 215 220 220 215 212 215 216 216 214 215 222 226 225 223 225 230 232 232 231 232 236 240
331 329 326 320 309 303 305 307 308 307 307 307 307 309 313 314 310 312 309 310 328 337 294 291 275 267 267 261 257 251 248 238 208 182 177 200 204 204 204 201 202 202 200 198 200 202 205 215 214 209 206 204 205 208 209 211 208 203 199 194 189 187 193 198 198 205 212 216 220 216 202 204 208 207 208 211 215 217 216 216 217 220 224 227 230 232 236 240
332 330 326 320 311 303 303 306 308 307 305 304 305 308 310 310 310 313 314 313 324 339 329 319 296 279 274 259 244 241 246 233 200 177 179 189 182 190 199 202 204 204 202 200 205 209 205 202 213 210 206 203 205 208 209 211 211 211 210 198 187 180 184 192 194 199 205 210 217 215 191 188 206 206 206 208 210 210 210 213 215 215 217 222 226 228 230 233
336 335 329 321 313 304 302 305 307 306 304 304 305 307 309 312 314 318 317 309 309 338 344 330 313 290 271 248 235 232 241 229 197 176 178 179 168 175 187 201 204 203 204 202 206 214 208 195 201 209 207 204 204 208 209 210 212 216 214 199 185 181 179 188 196 200 207 211 215 218 213 186 201 206 207 208 208 208 209 211 214 213 216 220 222 223 226 230
342 340 333 324 315 306 303 305 307 306 304 304 305 309 312 314 316 320 322 309 296 331 339 332 325 217 303 295 226 219 226 224 196 181 178 176 170 171 179 196 204 201 201 199 206 217 210 199 187 201 207 206 205 206 208 209 211 216 213 200 191 190 180 185 198 202 211 220 221 224 221 204 201 208 209 209 209 210 210 210 212 214 216 219 219 221 226 229
344 342 336 328 319 310 307 307 307 306 304 303 306 312 313 313 316 322 332 334 305 327 332 330 328 258 297 281 223 214 207 209 196 186 179 178 178 176 178 190 200 200 197 197 204 213 210 202 189 191 203 207 208 206 205 206 209 214 210 204 203 201 193 195 203 209 223 243 243 225 215 206 207 209 206 207 209 209 210 211 215 218 218 219 221 223 226 227
343 340 337 332 323 315 311 308 308 307 303 303 306 311 311 310 314 320 326 295 306 324 327 319 295 270 285 271 259 224 202 199 199 187 180 182 189 187 182 182 191 195 194 201 205 203 211 208 196 188 202 209 210 206 203 204 206 209 207 207 210 209 210 212 214 227 241 255 246 226 211 206 207 203 200 201 205 209 215 219 221 221 219 222 225 226 226 225
343 338 337 336 327 317 312 309 308 304 299 303 304 303 306 304 308 321 309 271 311 326 328 326 283 264 279 274 289 238 205 196 183 185 182 186 197 197 189 176 183 189 190 203 208 197 196 207 203 200 204 209 211 207 203 203 203 206 205 205 209 206 206 213 225 239 251 252 239 231 220 215 217 202 201 204 212 218 221 221 221 222 223 225 226 225 224 224
345 338 337 338 331 320 315 311 306 299 296 300 294 292 298 299 300 279 181 301 315 328 336 357 311 266 263 263 270 228 205 198 195 190 181 184 198 200 194 182 178 185 190 200 206 198 184 192 204 208 207 206 208 207 204 201 200 204 205 204 206 202 199 213 234 224 223 247 236 234 230 221 218 211 206 211 225 230 227 223 221 223 226 226 225 223 222 223
346 340 336 339 334 325 322 314 305 297 293 294 287 285 291 294 281 238 263 310 316 326 334 343 315 285 264 253 254 228 203 198 200 193 175 178 192 198 197 189 178 179 193 201 199 198 193 192 200 207 210 205 201 202 202 199 198 200 204 204 199 184 187 210 224 206 226 249 235 231 231 225 229 233 227 225 228 228 229 229 227 227 226 223 222 221 220 219
346 342 337 338 336 330 327 319 307 297 293 291 282 281 281 271 262 263 286 306 300 308 322 327 311 290 272 255 247 236 210 200 203 201 190 185 186 193 197 193 186 184 196 197 193 196 200 201 201 201 205 204 199 198 196 195 195 197 201 201 192 161 149 200 210 221 251 253 237 232 234 231 232 239 239 234 231 231 228 226 227 230 227 223 221 221 219 218
347 345 339 339 338 332 329 323 309 299 295 288 277 273 263 247 274 289 296 302 297 304 310 313 310 293 270 252 238 231 215 206 207 207 207 207 198 197 198 195 192 193 193 188 191 197 201 207 205 198 196 198 199 201 198 194 192 196 202 203 199 195 183 188 202 199 228 239 224 220 222 210 210 226 230 223 228 234 226 218 222 225 224 223 223 220 219 219
348 348 343 340 339 331 326 319 310 305 295 286 277 262 249 255 281 294 304 306 304 307 306 307 309 299 271 249 234 224 216 211 209 209 214 213 207 203 201 197 194 192 183 178 189 199 208 215 205 197 195 196 200 203 199 194 192 197 202 205 206 205 200 193 203 202 204 208 194 195 198 205 200 211 222 219 223 227 220 215 218 219 217 220 222 221 222 220
350 350 346 342 339 332 325 320 316 307 293 285 273 260 264 276 285 293 306 308 305 310 310 310 310 299 276 256 236 220 210 203 200 207 214 211 211 210 205 203 199 192 180 177 186 194 209 216 201 195 196 197 203 203 195 193 193 195 199 207 210 207 205 222 243 215 200 194 205 197 190 192 190 201 218 219 218 218 216 213 213 213 213 216 221 223 224 222
353 352 350 344 341 335 326 319 308 294 288 281 270 273 284 291 293 296 300 303 306 312 312 309 307 292 274 263 227 209 202 191 186 197 205 207 215 215 208 207 205 194 178 170 184 188 207 217 196 196 197 192 198 203 197 196 197 196 201 207 207 201 210 228 236 262 126 159 216 200 182 179 180 192 210 210 207 209 213 212 209 210 212 215 221 224 225 223
355 355 353 345 341 335 325 311 294 285 284 276 273 282 293 300 309 313 311 312 315 319 314 302 296 286 279 266 193 194 194 188 184 192 199 204 213 214 208 207 203 193 183 173 180 185 206 232 198 197 198 186 185 199 199 200 201 203 207 207 199 190 206 215 213 177 157 184 250 206 184 186 187 191 199 201 203 205 207 207 206 208 209 212 219 223 224 222
357 358 355 348 342 340 337 325 304 285 269 270 278 285 298 311 320 320 318 320 318 316 312 298 289 293 308 57 154 181 190 188 187 192 198 205 209 210 208 207 200 191 190 189 177 173 184 242 195 191 194 186 185 195 199 199 201 206 211 210 206 202 207 209 207 212 181 183 238 208 210 198 193 194 195 198 203 200 195 197 201 203 204 207 214 218 219 218
359 359 355 352 351 356 359 345 321 289 272 283 294 300 312 319 321 321 323 324 319 310 297 295 290 293 317 126 146 167 184 187 187 189 194 204 208 211 211 208 200 189 192 198 193 186 189 253 191 183 188 193 196 199 199 197 198 201 202 206 206 204 206 210 214 223 223 217 179 168 334 217 192 191 193 195 198 193 190 196 199 199 201 206 212 215 216 215
2 1 358 357 356 4 7 354 333 307 295 309 317 320 326 322 320 332 337 327 321 309 282 300 295 276 311 132 150 166 177 180 180 185 194 202 208 216 216 207 199 191 198 203 199 196 197 235 288 189 187 198 204 201 200 199 200 201 200 204 207 202 198 196 209 222 226 237 239 178 201 207 190 189 193 197 198 194 195 203 203 198 200 207 212 212 215 216
5 4 1 359 357 4 8 0 349 335 325 335 337 333 334 324 323 340 347 323 319 319 311 353 34 182 82 123 143 158 171 174 173 181 190 199 206 214 206 201 199 196 201 203 194 190 198 239 288 242 193 202 209 207 205 205 204 203 205 210 211 205 202 197 194 212 219 233 247 222 186 188 185 183 186 192 196 196 199 205 204 199 204 211 210 207 212 215
8 7 4 0 360 7 10 3 360 357 354 356 350 342 338 327 331 348 1 349 332 345 35 65 88 101 109 126 135 146 162 172 177 184 190 198 205 202 168 193 202 201 204 209 206 202 211 239 269 291 207 199 204 209 211 210 206 204 208 211 212 210 207 205 207 212 211 213 211 196 188 187 178 173 176 185 189 192 196 201 201 201 206 210 206 204 207 210
9 10 8 4 5 12 13 8 8 11 9 6 1 360 352 331 338 358 11 11 13 38 68 87 92 94 114 133 142 148 155 169 187 198 217 237 237 248 169 192 203 204 200 204 209 202 203 227 254 282 171 164 179 195 199 200 203 205 208 210 209 210 208 208 214 215 208 204 196 184 188 190 178 171 172 181 188 192 194 198 200 202 206 205 201 201 203 205
7 10 11 9 11 17 21 19 20 22 19 13 14 18 11 352 359 11 6 17 58 73 76 96 89 89 120 142 152 159 163 162 182 204 237 255 270 303 208 194 200 202 194 181 186 194 200 231 251 234 184 160 175 178 178 187 196 203 210 210 206 205 207 209 212 211 205 202 198 193 183 185 188 181 175 180 190 195 196 197 199 203 208 207 201 199 200 204
6 9 11 14 16 20 26 31 30 30 26 15 14 19 22 19 12 11 27 49 66 72 74 85 84 95 128 147 158 177 203 336 196 218 232 251 295 323 231 195 199 200 190 171 166 182 206 262 264 247 238 202 194 187 178 184 191 197 205 209 210 216 218 210 207 209 213 202 200 206 195 186 191 189 182 182 188 194 197 198 199 202 205 206 204 202 201 204
8 10 10 14 16 17 27 37 36 34 31 22 15 14 14 16 11 20 54 66 58 69 79 76 80 93 104 106 120 135 356 358 343 315 299 315 324 316 180 188 199 198 190 182 186 203 248 305 295 265 278 221 202 196 186 183 189 196 201 203 209 218 222 214 203 204 213 207 199 205 199 190 190 191 192 187 185 192 198 198 198 200 202 203 204 205 204 207
7 13 13 14 15 14 23 36 39 35 34 32 27 14 9 18 25 35 62 70 63 74 77 40 46 63 50 43 58 33 3 358 294 300 315 1 358 163 158 170 197 197 191 195 205 214 253 305 307 280 314 210 197 200 195 189 191 198 202 203 205 208 212 212 206 206 218 227 221 211 207 204 199 199 204 196 186 186 190 193 198 201 203 205 206 206 207 209
4 14 17 17 16 15 21 34 39 37 36 37 33 18 9 22 38 48 66 73 70 75 58 18 27 43 45 28 18 7 356 291 236 243 336 35 56 137 153 157 185 192 191 201 209 214 248 284 278 284 313 178 183 194 197 196 195 195 200 207 207 203 203 208 209 212 218 225 226 225 231 224 211 207 209 202 192 189 190 194 200 204 207 211 212 212 212 213
3 10 14 17 19 19 23 34 39 40 40 41 39 28 18 25 45 59 65 66 67 65 43 23 24 24 11 355 345 323 298 279 203 166 29 29 73 140 155 165 181 186 189 200 210 220 249 261 260 285 306 150 160 179 190 197 200 193 192 200 203 199 199 204 208 212 213 208 208 217 230 228 213 206 202 198 194 195 198 200 203 207 212 216 218 218 218 220
3 7 10 15 19 21 26 34 39 39 38 39 38 34 28 26 43 61 59 55 54 45 30 21 16 6 352 336 303 284 280 253 190 175 358 9 108 146 155 171 180 182 188 202 215 231 247 246 255 305 309 159 140 152 174 184 188 185 183 190 196 193 191 199 205 209 212 204 185 198 220 225 210 201 198 195 194 196 201 204 207 211 216 220 223 224 222 222
3 8 12 15 19 21 24 31 39 40 38 36 34 34 35 38 49 61 58 51 38 18 3 6 10 12 9 326 275 266 238 206 207 235 336 0 147 149 153 167 178 186 199 214 224 233 236 230 243 323 313 174 132 138 168 174 173 180 185 190 198 195 189 197 205 208 214 210 181 192 217 223 205 194 191 192 196 199 202 205 210 215 220 224 227 228 226 225